Hoffman, NC

3:01 PM EDT on August 26, 2016 (GMT -0400)
Mackall Army Air Field

Weather History for KHFF - March, 2014

Change the Weather History Date:

Saturday, March 29, 2014

  Actual Average Record
Temperature  
Mean Temperature 63 °F -  
Max Temperature 70 °F 64 °F 85 °F (2012)
Min Temperature 57 °F 44 °F 23 °F (2015)
Degree Days  
Heating Degree Days 2    
Growing Degree Days 13 (Base 50)    
Moisture  
Dew Point 60 °F    
Average Humidity 94    
Maximum Humidity 100    
Minimum Humidity 80    
Precipitation  
Precipitation 0.79 in - - ()
Sea Level Pressure  
Sea Level Pressure 29.89 in    
Wind  
Wind Speed 4 mph (SSE)    
Max Wind Speed 16 mph    
Max Gust Speed 24 mph    
Visibility 8 miles    
Events Fog , Rain    
Averages and records for this station are not official NWS values.
T = Trace of Precipitation, MM = Missing Value Source: NWS Daily Summary

Daily Weather History Graph

Daily Weather History Graph

Search for Another Location

Airport or City:

Trip Planner

Search our weather history database for the weather conditions in past years. The results will help you decide how hot, cold, wet, or windy it might be!

Date:

Astronomy

Mar. 29, 2014 Rise Set
Actual Time 7:09 AM EDT 7:36 PM EDT
Civil Twilight 6:43 AM EDT 8:02 PM EDT
Nautical Twilight 6:13 AM EDT 8:32 PM EDT
Astronomical Twilight 5:43 AM EDT 9:02 PM EDT
Moon 6:13 AM EDT (3/29) 6:41 PM EDT (3/29)
Length of Visible Light 13h 18m
Length of Day
12h 27m
Waning Crescent, 2% of the Moon is Illuminated
Mar 29
Waning Crescent
Mar 30
New
Apr 7
First Quarter
Apr 15
Full
Apr 22
Last Quarter

Hourly Weather History & Observations

Time (EDT) Temp. Dew Point Humidity Pressure Visibility Wind Dir Wind Speed Gust Speed Precip Events Conditions
12:26 AM 59.0 °F 59.0 °F 100% 30.13 in 3.0 mi WNW 3.5 mph - N/A Rain Rain
12:56 AM 59.4 °F 58.6 °F 97% 30.12 in 5.0 mi North 3.5 mph - 0.10 in Rain Rain
1:06 AM 59.0 °F 59.0 °F 100% 30.13 in 6.0 mi NW 3.5 mph - N/A Rain Rain
1:36 AM 59.0 °F 57.2 °F 94% 30.12 in 2.5 mi NNE 1.2 mph - N/A Rain Rain
1:41 AM 59.0 °F 59.0 °F 100% 30.12 in 1.1 mi NNE 1.2 mph - N/A Rain Rain
1:46 AM 59.0 °F 59.0 °F 100% 30.12 in 1.1 mi NNW 1.2 mph - N/A Fog , Rain Rain
1:51 AM 59.0 °F 57.2 °F 94% 30.12 in 1.5 mi NW 1.2 mph - N/A Rain Rain
1:53 AM 59.0 °F 57.2 °F 94% 30.13 in 1.5 mi West 1.2 mph - N/A Rain Rain
1:56 AM 58.6 °F 58.1 °F 98% 30.14 in 1.5 mi West 1.2 mph - 0.07 in Rain Rain
2:01 AM 59.0 °F 57.2 °F 94% 30.13 in 2.0 mi West 2.3 mph - N/A Rain Light Rain
2:06 AM 59.0 °F 57.2 °F 94% 30.12 in 3.0 mi West 1.2 mph - N/A Rain Light Rain
2:11 AM 59.0 °F 57.2 °F 94% 30.12 in 2.8 mi NW 1.2 mph - N/A Rain Light Rain
2:21 AM 59.0 °F 57.2 °F 94% 30.11 in 1.0 mi Calm Calm - N/A Fog , Rain Rain
2:26 AM 59.0 °F 57.2 °F 94% 30.11 in 0.8 mi East 1.2 mph - N/A Fog , Rain Light Rain
2:56 AM 57.9 °F 57.4 °F 98% 30.09 in 1.2 mi East 3.5 mph - 0.02 in Rain Light Rain Showers
3:18 AM 59.0 °F 57.2 °F 94% 30.08 in 1.9 mi East 2.3 mph - N/A Rain Light Rain Showers
3:28 AM 57.2 °F 57.2 °F 100% 30.07 in 1.2 mi ESE 3.5 mph - N/A Rain Light Rain Showers
3:31 AM 57.2 °F 57.2 °F 100% 30.07 in 1.1 mi ESE 3.5 mph - N/A   Mostly Cloudy
3:41 AM 57.2 °F 57.2 °F 100% 30.05 in 1.5 mi East 4.6 mph - N/A   Mostly Cloudy
3:46 AM 57.2 °F 57.2 °F 100% 30.05 in 4.0 mi East 4.6 mph - N/A   Mostly Cloudy
3:56 AM 58.1 °F 57.4 °F 97% 30.06 in 10.0 mi East 3.5 mph - N/A   Mostly Cloudy
4:06 AM 57.2 °F 57.2 °F 100% 30.05 in 8.0 mi ESE 3.5 mph - N/A Rain Light Rain Showers
4:56 AM 57.7 °F 57.2 °F 98% 30.04 in 4.0 mi ESE 3.5 mph - 0.02 in Rain Light Rain Showers
5:26 AM 57.2 °F 57.2 °F 100% 30.03 in 5.0 mi East 2.3 mph - N/A Rain Light Rain
5:56 AM 57.7 °F 57.0 °F 97% 30.04 in 7.0 mi ENE 2.3 mph - 0.04 in Rain Light Rain
6:11 AM 57.2 °F 57.2 °F 100% 30.03 in 4.0 mi ENE 2.3 mph - N/A Rain Rain
6:31 AM 57.2 °F 57.2 °F 100% 30.02 in 10.0 mi ESE 4.6 mph - N/A Rain Light Rain
6:46 AM 57.2 °F 57.2 °F 100% 30.02 in 10.0 mi East 4.6 mph - N/A Rain Light Rain
6:53 AM 57.2 °F 57.2 °F 100% 30.02 in 8.0 mi ENE 3.5 mph - N/A   Overcast
6:54 AM 57.2 °F 57.2 °F 100% 30.02 in 7.0 mi ENE 3.5 mph - N/A Rain Light Rain Showers
6:56 AM 57.7 °F 57.0 °F 97% 30.03 in 7.0 mi NE 3.5 mph - 0.02 in Rain Light Rain Showers
7:11 AM 57.2 °F 57.2 °F 100% 30.01 in 6.0 mi East 3.5 mph - N/A Rain Light Rain Showers
7:56 AM 57.9 °F 57.4 °F 98% 30.02 in 12.0 mi ESE 3.5 mph - 0.02 in Rain Light Rain
8:00 AM 57.2 °F 57.2 °F 100% 30.01 in 12.0 mi ESE 4.6 mph - N/A   Overcast
8:04 AM 59.0 °F 57.2 °F 94% 30.00 in 10.0 mi ESE 4.6 mph - N/A Rain Light Rain Showers
8:19 AM 59.0 °F 57.2 °F 94% 30.01 in 8.0 mi SE 4.6 mph - N/A   Overcast
8:30 AM 59.0 °F 57.2 °F 94% 30.01 in 6.0 mi ESE 5.8 mph - N/A Rain Light Rain Showers
8:40 AM 59.0 °F 57.2 °F 94% 30.01 in 1.8 mi ESE 2.3 mph - N/A Rain Light Rain Showers
8:45 AM 59.0 °F 57.2 °F 94% 30.01 in 1.5 mi SE 2.3 mph - N/A Rain Light Rain Showers
8:50 AM 59.0 °F 57.2 °F 94% 30.00 in 2.2 mi ESE 2.3 mph - N/A Rain Light Rain Showers
8:56 AM 58.5 °F 57.9 °F 98% 30.01 in 4.0 mi ESE 2.3 mph - 0.02 in Rain Light Rain Showers
9:09 AM 59.0 °F 59.0 °F 100% 30.00 in 9.0 mi SE 5.8 mph - N/A   Overcast
9:39 AM 59.0 °F 59.0 °F 100% 29.98 in 12.0 mi SE 4.6 mph - N/A Rain Light Rain Showers
9:56 AM 60.3 °F 59.5 °F 97% 29.98 in 9.0 mi SSE 6.9 mph - 0.01 in Rain Light Rain Showers
10:56 AM 61.5 °F 60.4 °F 96% 29.94 in 6.0 mi SE 8.1 mph - 0.09 in Rain Rain Showers
11:54 AM 64.4 °F 62.6 °F 94% 29.90 in 12.0 mi SSE 11.5 mph - N/A   Overcast
11:56 AM 63.5 °F 61.7 °F 94% 29.90 in 12.0 mi SSE 11.5 mph - 0.05 in   Overcast
12:01 PM 64.4 °F 60.8 °F 88% 29.89 in 12.0 mi SE 15.0 mph - N/A   Overcast
12:16 PM 64.4 °F 62.6 °F 94% 29.88 in 12.0 mi SSE 10.4 mph - N/A   Overcast
12:18 PM 64.4 °F 62.6 °F 94% 29.88 in 12.0 mi SSE 12.7 mph - N/A   Overcast
12:26 PM 64.4 °F 62.6 °F 94% 29.87 in 12.0 mi SSE 10.4 mph - N/A Rain Light Rain Showers
12:49 PM 64.4 °F 62.6 °F 94% 29.85 in 12.0 mi SSE 9.2 mph - N/A   Overcast
12:56 PM 63.9 °F 62.1 °F 94% 29.83 in 12.0 mi SE 10.4 mph - N/A   Overcast
1:36 PM 64.4 °F 62.6 °F 94% 29.82 in 12.0 mi SSE 11.5 mph - N/A   Overcast
1:51 PM 66.2 °F 62.6 °F 88% 29.79 in 12.0 mi South 10.4 mph - N/A   Overcast
1:56 PM 65.8 °F 63.0 °F 90% 29.80 in 12.0 mi South 12.7 mph - N/A   Overcast
2:41 PM 66.2 °F 62.6 °F 88% 29.77 in 12.0 mi South 10.4 mph - N/A   Mostly Cloudy
2:56 PM 66.2 °F 62.6 °F 88% 29.78 in 12.0 mi South 6.9 mph - N/A   Overcast
3:56 PM 66.7 °F 63.5 °F 89% 29.75 in 12.0 mi SSE 4.6 mph - N/A   Mostly Cloudy
4:51 PM 69.8 °F 64.4 °F 83% 29.71 in 12.0 mi SSE 6.9 mph - N/A   Mostly Cloudy
4:56 PM 69.6 °F 63.3 °F 80% 29.71 in 12.0 mi SSE 8.1 mph - N/A   Mostly Cloudy
5:47 PM 68.0 °F 62.6 °F 83% 29.68 in 12.0 mi SE 6.9 mph - N/A Rain Light Rain
5:56 PM 68.2 °F 62.8 °F 83% 29.68 in 12.0 mi SE 5.8 mph - N/A Rain Light Rain Showers
6:03 PM 68.0 °F 62.6 °F 83% 29.67 in 12.0 mi ESE 5.8 mph - N/A   Mostly Cloudy
6:05 PM 68.0 °F 62.6 °F 83% 29.67 in 12.0 mi SE 4.6 mph - N/A Rain Light Rain
6:25 PM 68.0 °F 62.6 °F 83% 29.66 in 12.0 mi Variable 1.2 mph - N/A Rain Light Rain Showers
6:34 PM 68.0 °F 62.6 °F 83% 29.67 in 12.0 mi WNW 13.8 mph 17.3 mph N/A   Mostly Cloudy
6:39 PM 66.2 °F 62.6 °F 88% 29.66 in 12.0 mi West 8.1 mph 17.3 mph N/A   Mostly Cloudy
6:52 PM 68.0 °F 62.6 °F 83% 29.66 in 12.0 mi WSW 4.6 mph - N/A Rain Light Rain Showers
6:56 PM 67.3 °F 63.3 °F 87% 29.67 in 12.0 mi West 4.6 mph - 0.01 in Rain Light Rain Showers
7:06 PM 66.2 °F 64.4 °F 94% 29.66 in 8.0 mi NW 8.1 mph - N/A Rain Rain Showers
7:16 PM 66.2 °F 64.4 °F 94% 29.65 in 5.0 mi NW 10.4 mph - N/A Rain Heavy Rain Showers
7:19 PM 64.4 °F 64.4 °F 100% 29.67 in 3.0 mi West 11.5 mph - N/A Rain Heavy Rain Showers
7:24 PM 64.4 °F 64.4 °F 100% 29.66 in 2.0 mi WSW 5.8 mph 16.1 mph N/A Rain Heavy Rain Showers
7:35 PM 64.4 °F 64.4 °F 100% 29.66 in 7.0 mi SSW 3.5 mph - N/A Rain Light Rain Showers
7:40 PM 64.4 °F 64.4 °F 100% 29.66 in 9.0 mi WSW 4.6 mph - N/A Rain Light Rain Showers
7:41 PM 64.4 °F 64.4 °F 100% 29.66 in 9.0 mi West 4.6 mph - N/A   Mostly Cloudy
7:46 PM 64.4 °F 64.4 °F 100% 29.66 in 8.0 mi WNW 2.3 mph - N/A   Mostly Cloudy
7:51 PM 64.4 °F 64.4 °F 100% 29.65 in 9.0 mi SSW 1.2 mph - N/A   Mostly Cloudy
7:56 PM 64.8 °F 63.7 °F 96% 29.65 in 8.0 mi Variable 2.3 mph - 0.29 in   Mostly Cloudy
7:58 PM 64.4 °F 64.4 °F 100% 29.65 in 8.0 mi West 3.5 mph - N/A Rain Light Rain Showers
8:20 PM 64.4 °F 62.6 °F 94% 29.65 in 12.0 mi SSW 3.5 mph - N/A   Mostly Cloudy
8:56 PM 63.0 °F 61.9 °F 96% 29.64 in 11.0 mi South 3.5 mph - 0.02 in   Scattered Clouds
9:56 PM 64.6 °F 59.0 °F 82% 29.63 in 12.0 mi SW 11.5 mph - N/A   Partly Cloudy
10:56 PM 62.1 °F 57.2 °F 84% 29.62 in 12.0 mi SSW 6.9 mph - N/A   Clear
11:46 PM 62.6 °F 57.2 °F 82% 29.62 in 12.0 mi SW 15.0 mph 19.6 mph N/A   Mostly Cloudy
11:56 PM 61.9 °F 57.2 °F 85% 29.62 in 12.0 mi SW 16.1 mph 24.2 mph 0.01 in   Mostly Cloudy